Location: Bruhly
(48.4264°N, 7.6671°E)
Time: 21:02:29
(UTC+00:00)

Daily predictions for brighter satellites

Satellite Brightness Start Highest point End
(mag) Time Altitude Azimuth Time Altitude Azimuth Time Altitude Azimuth
Cosmos 1464 Rocket 4.4 16:06:14 10° SSE 16:12:13 46° E 16:18:15 10° NNE
Cosmos 1461 3.1 16:09:23 10° SW 16:13:37 72° NW 16:17:43 10° NE
NOAA 6 4.3 16:09:22 10° SE 16:14:14 45° ENE 16:19:08 10° N
Cosmos 1408 Rocket 4.0 16:14:58 10° N 16:19:05 40° ENE 16:23:11 10° SE
Cosmos 1271 Rocket 2.7 16:16:12 10° S 16:20:05 69° E 16:24:04 10° NNE
NOSS 2-1 (E) 2.8 16:17:12 10° SSW 16:20:27 70° SE 16:23:47 10° NE
CZ-4B R/B 2.9 16:18:45 10° SSE 16:22:56 80° ENE 16:26:56 10° NNW
Cosmos 1697 Rocket 3.6 16:18:11 10° NNW 16:22:56 27° NE 16:27:41 10° ESE
GEOS 3 Rocket 4.4 16:18:43 10° E 16:23:20 33° NNE 16:27:55 10° NNW
Cosmos 1743 Rocket 4.5 16:19:42 10° NNE 16:23:20 26° ENE 16:26:58 10° SE
Cosmos 1980 Rocket 3.6 16:20:32 10° N 16:24:26 18° NE 16:28:19 10° E
Lacrosse 5 3.1 16:21:48 10° WNW 16:26:42 47° SW 16:31:34 10° SSE
Nadezhda 4 Rocket 4.2 16:20:40 10° N 16:26:48 50° ENE 16:32:55 10° SSE
deb Kosmos-1763 4.4 16:24:10 10° S 16:27:22 39° ESE 16:30:35 10° NE
USA 267 3.4 16:22:03 10° NE 16:28:37 80° NNW 16:35:09 10° WSW
USA 305 2.9 16:25:11 10° WSW 16:29:25 79° NNW 16:33:22 12° ENE
Cosmos 1656 3.8 16:24:11 10° NNW 16:29:32 49° NE 16:34:56 10° SE
CZ-4C R/B 4.2 16:27:13 10° N 16:31:09 52° WNW 16:34:50 10° SSW
CZ-2C R/B 3.0 16:26:10 10° SSE 16:31:11 84° WSW 16:36:01 10° NNW
CZ-4B DEB 4.3 16:28:12 10° SE 16:33:33 53° ENE 16:38:53 10° N
Cosmos 1340 Rocket 3.3 16:32:14 10° N 16:36:03 37° ENE 16:39:51 10° SE
Cosmos 1891 Rocket 4.5 16:30:16 10° S 16:36:26 77° E 16:42:47 10° NNE
USA 229 DEB 4.1 16:30:44 10° NW 16:37:43 51° NE 16:45:12 10° ESE
USA 229 4.1 16:30:49 10° NW 16:37:49 51° NE 16:45:17 10° ESE
Cosmos 990 Rocket 4.3 16:36:02 10° NNW 16:41:01 43° ENE 16:45:57 10° SE
AQUARIUS 4.1 16:37:54 10° SSE 16:42:19 64° ENE 16:46:48 10° N
Lacrosse 5 rocket 2.7 16:39:36 10° WNW 16:42:42 23° N 16:45:18 13° NE
ATLAS 2AS CENTAUR R/B 4.0 16:38:07 10° W 16:45:18 38° NNW 16:52:12 10° NE
Cosmos 1513 Rocket 4.4 16:39:23 10° S 16:45:28 85° E 16:51:42 10° N
USA 276 2.0 16:42:24 10° WNW 16:45:32 73° N 16:47:51 17° E
ATLAS CENTAUR R/B 3.9 16:37:28 10° SSW 16:47:18 39° SE 16:50:57 16° ENE
Cosmos 1933 4.4 16:45:27 10° SE 16:48:46 25° E 16:51:18 14° NE
PAYLOAD B 4.3 16:43:42 10° SE 16:49:10 56° ENE 16:54:39 10° N
SJ 16-02 2.1 16:45:35 10° NNW 16:49:53 56° WSW 16:54:09 10° S
Cosmos 1500 Rocket 3.7 16:49:34 10° N 16:53:58 53° ENE 16:58:17 10° SSE
Cosmos 2034 Rocket 3.9 16:49:30 10° S 16:55:35 66° E 17:01:41 10° NNE
CORIOLIS 4.2 16:54:37 10° SSE 17:00:01 87° WSW 17:05:29 10° NNW
NOSS 3-1 (A) 4.0 16:54:01 10° NW 17:01:16 68° NE 17:09:52 10° SE
USA 306 3.2 16:57:08 10° W 17:01:20 58° NNW 17:04:00 21° NE
CZ-2D R/B 3.2 16:57:44 10° SSE 17:01:32 61° ENE 17:05:20 10° N
NOSS 2-1 (C) 3.9 16:58:37 10° WSW 17:01:41 39° NW 17:04:09 15° NNE
USA 234 4.2 16:56:56 10° SSE 17:03:13 49° SW 17:09:32 10° WNW
Meteor 1-20 Rocket 4.3 16:58:20 10° N 17:04:07 63° ENE 17:09:54 10° SSE
NOSS 3-1 (C) 4.1 16:57:03 10° NW 17:04:28 86° SW 17:13:12 10° SE
Cosmos 1805 Rocket 3.9 17:00:40 10° N 17:04:47 41° ENE 17:08:53 10° SE
Cosmos 1842 Rocket 3.6 17:02:52 10° S 17:07:19 85° W 17:11:50 10° N
Cosmos 1833 Rocket 3.3 17:03:41 10° S 17:08:45 36° ESE 17:11:51 21° NE
Cosmos 2360 4.4 17:04:13 10° NNW 17:09:48 49° NE 17:15:20 10° SE
NOSS 2-1 (D) 4.2 17:08:04 10° WSW 17:11:01 33° NW 17:13:12 16° NNE
PSLV R/B 3.7 17:09:46 10° SSE 17:13:26 82° WSW 17:17:10 10° NNW
CZ-4B R/B 3.1 17:08:28 10° SSE 17:13:50 61° ENE 17:19:09 10° N
Sich 1 3.3 17:11:55 10° N 17:16:00 41° ENE 17:20:04 10° SSE
Cosmos 1939 Rocket 4.2 17:13:12 10° S 17:17:09 43° W 17:21:06 10° NNW
USA 307 3.3 17:13:37 10° W 17:17:49 54° NNW 17:19:51 28° NE
SMAP 4.0 17:13:22 10° S 17:17:53 51° W 17:22:27 10° NNW
ARGOS 3.2 17:12:53 10° SE 17:18:08 53° ENE 17:23:24 10° N
ERBS 2.5 17:15:11 10° WSW 17:18:21 59° NNW 17:19:27 35° NNE
H-2A R/B 2.0 17:14:31 10° SSE 17:19:47 84° ENE 17:24:54 10° NNW
Cosmos 1606 4.0 17:16:15 10° SW 17:19:47 40° WNW 17:23:23 10° N
Cosmos 1898 Rocket 3.4 17:14:33 10° NNW 17:19:49 66° ENE 17:25:00 10° SSE
MOS 1-B Rocket 4.0 17:15:13 10° NNE 17:20:53 62° ESE 17:27:10 10° S
Cosmos 1634 Rocket 4.2 17:15:07 10° SSE 17:21:10 51° E 17:27:15 10° NNE
SL-24 R/B - RUBIN 2 4.4 17:18:18 10° NNW 17:22:30 32° NE 17:23:12 30° NE
COSMOS 2455 3.8 17:20:13 10° SSE 17:25:05 26° ESE 17:25:53 26° E
ATLAS CENTAUR R/B 3.1 17:22:47 10° W 17:26:26 27° NW 17:29:27 14° NNE
Cosmos 2221 3.6 17:22:56 10° SSW 17:27:02 46° WNW 17:31:12 10° N
Cosmos 468 Rocket 3.9 17:22:02 10° S 17:27:06 61° ESE 17:30:20 22° NE
Landsat 5 3.9 17:27:18 36° E 17:27:49 38° E 17:31:39 10° SSE
Cosmos 44 3.8 17:23:36 10° NW 17:28:20 58° WSW 17:32:46 10° SSE
CZ-4 R/B 4.4 17:25:40 10° SSE 17:29:42 58° ENE 17:33:47 10° N
COSMO-SKYMED 1 2.6 17:29:13 23° NNE 17:31:47 58° E 17:36:03 10° S
Cosmos 2026 Rocket 3.8 17:28:09 10° N 17:34:21 76° E 17:40:26 10° SSE
Cosmos 540 Rocket 3.7 17:30:59 10° S 17:35:48 44° ESE 17:37:03 37° ENE
SL-08 RB Rocket 3.8 17:31:36 10° SE 17:36:06 51° ENE 17:40:35 10° N
Cosmos 2195 Rocket 4.4 17:30:18 10° N 17:36:28 90° W 17:42:39 10° S
deb Chang Zheng 4 3.5 17:32:10 10° SSE 17:36:29 89° ENE 17:40:50 10° NNW
CZ-2C R/B 2.5 17:32:51 10° NNE 17:38:01 67° ESE 17:43:09 10° S
SJ-11-01 4.2 17:35:15 10° SSE 17:40:00 79° ENE 17:44:46 10° NNW
USA 308 3.5 17:36:03 10° W 17:40:09 46° NNW 17:41:12 37° NNE
Cosmos 1500 3.1 17:36:40 10° N 17:44:46 - SSE 17:40:06 58° NE
Okean O Rocket 1.5 17:36:18 10° SSE 17:40:44 81° ENE 17:45:13 10° NNW
Cosmos 2360 Rocket 4.2 17:39:47 10° N 17:41:20 12° NNE 17:41:20 12° NNE
Helios 1B 4.4 17:40:04 27° NNE 17:42:23 74° ESE 17:46:43 10° S
Meteor 1-25 Rocket 4.4 17:37:55 10° NNW 17:43:28 72° W 17:49:01 10° S
ISS -3.2 17:41:53 10° WNW 17:44:55 48° NNW 17:44:55 48° NNW
Meteor 2-21 4.3 17:39:44 10° N 17:45:53 83° E 17:51:57 10° S
CZ-4C R/B 3.1 17:40:09 10° NW 17:46:49 49° NE 17:49:48 34° E
YAOGAN 1 3.6 17:50:22 31° NNE 17:50:22 31° NNE 17:52:51 10° N
Meteor 1-5 Rocket 4.3 17:49:07 10° N 17:55:02 58° ENE 18:00:54 10° SSE
CZ-4 R/B 3.5 18:00:21 17° N 18:00:21 17° N 18:01:19 10° N
Cosmos 2084 3.7 17:53:48 10° NW 17:58:05 68° SW 17:59:42 37° SSE
Cosmos 2369 3.6 17:53:26 10° NNW 17:59:13 78° ENE 18:02:24 28° SE
Cosmos 2322 Rocket 3.9 17:55:06 10° N 17:57:35 18° NNE 17:57:35 18° NNE
GEOS 3 Rocket 3.8 17:56:54 16° SSE 18:01:05 71° SW 18:06:18 10° NW
NOAA 15 4.5 17:56:10 10° SSE 18:01:25 68° ENE 18:06:42 10° N
Cosmos 1782 2.8 17:58:23 10° SSW 18:02:24 81° W 18:02:36 77° NNW
Cosmos 1697 Rocket 3.0 18:01:48 10° NNW 18:07:22 64° WSW 18:12:54 10° SSE
Cosmos 1937 Rocket 3.7 18:02:20 10° NNW 18:07:39 72° WSW 18:12:56 10° SSE
Cosmos 1763 Rocket 3.9 18:03:46 10° SW 18:08:46 60° WNW 18:11:17 29° N
NOSS 2-2 (C) 4.1 18:04:21 10° NW 18:09:23 76° NE 18:10:58 51° ESE
Cosmos 1980 Rocket 2.0 18:03:46 10° NNW 18:09:28 75° ENE 18:10:39 56° SE
USA 305 3.8 18:05:40 10° WNW 18:09:21 39° NNW 18:09:21 39° NNW
Cosmos 841 Rocket 3.3 18:05:13 10° S 18:10:09 67° ESE 18:10:09 67° ESE
USA 267 3.9 18:08:54 33° NE 18:11:14 46° N 18:17:23 10° W
Cosmos 1666 Rocket 4.3 18:08:31 10° N 18:11:32 42° N 18:11:32 42° N
Cosmos 2333 Rocket 4.4 18:10:48 10° N 18:11:34 11° N 18:11:34 11° N
SL-16 R/B 3.6 18:08:49 10° NNW 18:11:40 23° NNE 18:11:40 23° NNE
Spot 2 4.4 18:14:27 16° SSE 18:18:31 85° WSW 18:23:42 10° NNW
Cosmos 2082 Rocket 2.4 18:13:49 10° S 18:18:34 54° SSE 18:18:34 54° SSE
SKYMED 2 4.5 18:17:49 27° NNW 18:19:49 47° WNW 18:23:58 10° SW
Lacrosse 5 rocket 3.2 18:19:11 10° NW 18:20:53 21° NNW 18:20:53 21° NNW
COSMOS 2406 3.2 18:19:09 10° SSW 18:24:55 81° WNW 18:26:02 59° NNE
Cosmos 2278 3.7 18:19:33 10° NNW 18:24:47 68° NNE 18:24:47 68° NNE
Cosmos 372 Rocket 4.3 18:29:23 10° NNW 18:34:34 65° WSW 18:35:15 59° SSW
ATLAS 2AS CENTAUR R/B 4.2 18:32:21 10° NW 18:38:26 25° N 18:39:54 23° NNE
Meteor 2-8 Rocket 4.3 18:32:48 10° S 18:38:41 82° SSE 18:38:41 82° SSE
Cosmos 1833 Rocket 3.7 18:47:16 10° SW 18:52:36 43° NW 18:53:36 39° NNW
Cosmos 2266 Rocket 4.5 18:53:28 10° N 18:58:09 52° NNW 18:58:09 52° NNW
ATLAS CENTAUR R/B 4.4 19:05:10 10° NNW 19:05:34 11° NNW 19:05:34 11° NNW
COSMOS 2455 3.6 19:04:35 10° SW 19:09:04 49° WSW 19:09:04 49° WSW
ATLAS CENTAUR R/B 4.2 19:12:30 10° WSW 19:16:49 29° WNW 19:16:49 29° WNW
CZ-4C R/B 3.4 19:28:37 10° NW 19:35:01 57° W 19:35:01 57° W
Cosmos 1980 Rocket 4.5 19:48:54 10° NW 19:52:30 19° W 19:52:30 19° W
